Regional Weather Roundup
Issued by NWS Wakefield, VA

Home | Current Version | Previous Version | Graphics & Text | Print | Product List | Glossary Off
Versions: 1 2 3 4 5 6 7 8 9 10 11 12 13 14 15 16 17 18 19 20 21 22 23 24 25 26 27 28 29 30 31 32 33 34 35 36 37 38 39 40 41 42 43 44 45 46 47 48 49 50

000
ASUS41 KAKQ 141415
RWRAKQ

REGIONAL WEATHER ROUNDUP
NATIONAL WEATHER SERVICE WAKEFIELD VA
900 AM EST SUN FEB 14 2016

Note: "fair" indicates few or no clouds below 12,000 feet with no
significant weather and/or obstructions to visibility. * = Denotes
station may not report precipitation (e.g., rain,snow,etc.),
thunder or fog.

VAZ042-051-052>054-056-141500-
NORTHERN VIRGINIA

CITY           SKY/WX    TMP DP  RH WIND       PRES   REMARKS
WASH NATIONAL  FAIR      17  -2  43 NW9       30.60R
DULLES         FAIR      15  -2  46 NW9       30.57R
FORT BELVOIR   FAIR      16  -3  42 NW10      30.59R WCI   4
QUANTICO       FAIR      19  -1  41 N10G17    30.61S WCI   7
FREDERICKSBRG* FAIR      17   3  55 NW7       30.59S
STAFFORD*      FAIR      16   2  53 NW10      30.63R WCI   4
WARRENTON      FAIR      18   5  56 NW7       30.56S
CULPEPER*      FAIR      15   1  54 CALM      30.58R
MANASSAS*      SUNNY     18   3  53 N12       30.58R WCI   5
LEESBURG*      FAIR      18   3  53 N7        30.57R
WINCHESTER     FAIR      16   3  57 W5        30.51S
FRONT ROYAL*   FAIR      14   0  52 NW5       30.51S
LURAY*         FAIR      14   1  57 SE3       30.50S
$$

VAZ048-049-060>072-079>083-141500-
CENTRAL AND SOUTH CENTRAL VIRGINIA

CITY           SKY/WX    TMP DP  RH WIND       PRES   REMARKS
RICHMOND       PTSUNNY   17   0  47 N8        30.58R
CHESTERFIELD*  FAIR     N/A N/A N/A N5        30.58R
PETERSBURG*    FAIR      20  -9  27 N7        30.59R
HANOVER        FAIR      17  -1  45 N6        30.59S
TAPPAHANNOCK*  FAIR      18   1  46 NW6       30.58S
QUINTON*       FAIR      17   1  49 N7        30.58S
CHARLOTTSVILLE FAIR      15   0  51 CALM      30.54R
GORDONSVILLE*  FAIR      16   0  49 CALM      30.55S
ORANGE*        FAIR      18   1  49 CALM      30.57S
LOUISA*          N/A     16   1  53 N3        30.54S
BUMPASS*       FAIR      16   1  52 CALM      30.56S
FARMVILLE*     FAIR      18  -2  40 CALM      30.55S
CREWE*         FAIR      18  -3  40 N5        30.56R
FORT PICKETT*  FAIR      18  -3  40 N8        30.55S
CHASE CITY*    FAIR      17  -5  36 MISG      30.55S
CLARKSVILLE*   FAIR      19  -2  38 NE3       30.56R
SOUTH HILL*    FAIR      16  -3  43 N6        30.62R
LAWRENCEVILLE* FAIR      18  -2  41 N5        30.56S
EMPORIA*       FAIR      19   1  45 N7        30.60S
$$

VAZ088>098-141500-
SOUTHEAST VIRGINIA

CITY           SKY/WX    TMP DP  RH WIND       PRES   REMARKS
NORFOLK        FAIR      20   0  41 N12G22    30.57S WCI   8
VIRGINIA BEACH FAIR      24   3  40 N22G29    30.56S WCI   9
NORFOLK NAVAL  FAIR      20   1  43 N14       30.59R WCI   7
WEST POINT*    FAIR      18  -2  41 NW8G17    30.60F
SALUDA*        FAIR      17   0  45 N13G20    30.57S WCI   4
NEWPORT NEWS   FAIR      19  -1  41 N14G23    30.58R WCI   6
LANGLEY AFB    FAIR      19  -1  40 NW12G21   30.57R WCI   7
FORT EUSTIS    FAIR      19  -1  41 N13G22    30.57R WCI   6
WILLIAMSBURG*  FAIR      19   1  45 N14G22    30.59S WCI   6
HR EXEC AP*    FAIR      19   0  42 N9G16     30.60S
FRANKLIN*      FAIR      18  -2  41 NE9G16    30.60S
US460-WAKEFLD  FAIR      19  -2  39 N13       30.59R WCI   6
$$

VAZ020-022-025-037-045-141500-
WEST CENTRAL AND SOUTHWEST VIRGINIA

CITY           SKY/WX    TMP DP  RH WIND       PRES   REMARKS
STAUNTON*      FAIR      16   2  54 CALM      30.50S
WAYNESBORO*    FAIR      10  -3  54 CALM      30.46R
HOT SPRINGS VA FAIR       1  -4  77 CALM      30.18R
LYNCHBURG      FAIR      16  -3  43 N3        30.53R
DANVILLE       FAIR      20  -3  36 VRB5      30.56R
SOUTH BOSTON*  FAIR      19  -5  35 N5        30.56S
MARTINSVILLE   PTSUNNY   16  -2  45 E3        30.55R
ROANOKE        PTSUNNY   14  -3  47 NE5       30.51R
BLACKSBURG     PTSUNNY   11   1  63 CALM      30.42R
DUBLIN*        CLOUDY    12   0  58 CALM      30.40S
MARION*        CLOUDY    12   1  61 NE7       30.35S
HILLSVILLE*    CLOUDY    10   0  62 CALM      30.30F
RICHLANDS*     CLOUDY     9  -1  63 CALM      30.31R
WISE*          CLOUDY    14   0  52 CALM      30.29F
ABINGDON*      CLOUDY    17   1  51 NE5       30.35R
$$

MDZ021>025-VAZ099-100-141500-
SOUTHERN MARYLAND AND THE DELMARVA PENINSULA

CITY           SKY/WX    TMP DP  RH WIND       PRES   REMARKS
PATUXENT RIVER MOSUNNY   17  -3  41 N18       30.57S WCI   1
BAY BRIDGE APT   N/A     18  -4  38 NW8       30.58R
LEONARDTOWN    SUNNY     16  -2  45 W8        30.58
DOVER          SUNNY     15  -3  44 NW17      30.54S WCI  -1
GEORGETOWN     SUNNY     15  -6  39 N13G21    30.55S WCI   1
EASTON         SUNNY     18  -2  41 N13       30.60R WCI   4
CAMBRIDGE      SUNNY     18  -2  41 NW12      30.56S WCI   5
SALISBURY      SUNNY     17  -1  45 N14G20    30.55S WCI   3
OCEAN CITY     SUNNY     17  -4  39 N18G28    30.55F WCI   1
WALLOPS ISLAND FAIR      18  -3  39 NW15G21   30.55F WCI   4
ACCOMACK*      FAIR      19   0  42 N15G22    30.55S WCI   5
$$

NCZ012>017-030>032-141500-
NORTH CENTRAL AND EASTERN NORTH CAROLINA

CITY           SKY/WX    TMP DP  RH WIND       PRES   REMARKS
ROANOKE RAPIDS FAIR      19   3  49 NE8       30.58S
RALEIGH        CLOUDY    19  -3  38 NE10      30.56R WCI   7
ELIZABETH CITY SUNNY     20   3  48 N17       30.58R WCI   5
AHOSKIE*       SUNNY     18  -2  41 NE9       30.60R
EDENTON*       SUNNY     22   1  39 N13       30.59R WCI  10
CURRITUCK*     SUNNY     21   4  49 N10G17    30.57S WCI  10
KILL DEVIL HLS PTSUNNY   24   9  52 N15       30.53R WCI  11
MANTEO         MOSUNNY   21  10  60 N15G22    30.55R WCI   8
CAPE HATTERAS  MOSUNNY   25  12  58 N9G24     30.54R
TARBORO*       FAIR      22   0  39 NE7       30.60S
GOLDSBORO      SUNNY     21  -2  35 NE13      30.55R WCI   9
WASHINGTON     SUNNY     20  -1  39 NE10      30.58S WCI   9
GREENVILLE     SUNNY     21   1  42 NE12      30.57S WCI   9
NEW BERN       SUNNY     22   1  40 NE14      30.58R WCI   9
WILMINGTON     SUNNY     25   2  37 NE16      30.55R WCI  12
$$

VAZ048-141500-
ELSEWHERE

CITY           SKY/WX    TMP DP  RH WIND       PRES   REMARKS
HARRISBURG PA  MOSUNNY   11  -4  51 NW10      30.53R WCI  -3
BALTIMORE      MOSUNNY   15  -2  46 NW8       30.57R
ANNAPOLIS      SUNNY     16   1  51 NW9       30.58R
ANDREWS AFB    FAIR      16  -2  45 NW12      30.55R WCI   2
PHILADELPHIA   MOSUNNY   10 -12  36 NW16G24   30.56R WCI  -7
HENDERSON NC   CLOUDY    19  -5  35 N6        30.55R
GREENSBORO     PTSUNNY   19  -2  39 NE9       30.50R
ROCKY MOUNT    SUNNY     20  -1  40 N10       30.59R WCI   9
$$

VAZ100-141500-
MARINE

STATION/POSITION TIME  TEMP    WIND        PRES    WAVE   SWELL
                       AIR SEA DIR/SP/G            HT/PER HT/PER
                 (UTC) (F)     (DEG/KT/KT) (MB)    (FT/S) (FT/S)
BRANDYWINE LGT   1300   13     320/ 18/ 23 1033.8R
CAPE MAY NJ      1300   14 31  330/ 15/ 23 1033.9R
LEWES DE         1300   14 31  330/ 18/ 27 1034.2R
15NM E FENWICK I 1350   18 42              1033.7R   6/ 6
OCEAN-CITY-INLET 1300   15 31  350/ 13/ 18 1033.8R
WACHAPREAGUE VA  1300   17 29  360/  7/ 18 1034.2R
THOMAS POINT MD  1400   14 35  320/ 11/ 14 1036.2R
GOOSES REEF MD   1400   17 36  340/ 14/ 19 1036.3R   2/ 3
COVE POINT MD    1300   13     320/ 13/ 17 1035.8R
SOLOMONS ISLAND  1300   16 36  340/ 11/ 15   N/A
BISHOPS HEAD MD  1300   16 30  320/ 11/ 15 1034.1R
PINEY POINT MD   1300          350/ 21/ 25   N/A
POTOMAC MD       1400   17 36  340/ 14/ 17 1034.5R   2/ 3
CAMBRIDGE MD     1300   16 32  320/ 15/ 18 1034.3R
LEWISETTA VA     1300   16 32  360/ 14/ 19 1035.2R
RAPPAHANNOCK LGT 1300          340/ 23/ 29 1034.4R
STINGRAY PT      1400   19 38  360/ 17/ 21 1035.3S   2/ 3
YORK RVR RNG VA  1300   18     360/ 17/ 25 1034.2R
YORKTOWN VA      1300   17 38  340/ 16/ 19 1035.2R
JAMESTOWN VA     1400   17 38  330/ 12/ 17   N/A
DOMINION TERM VA 1300   18     350/  5/ 19 1035.3R
KIPTOPEKE VA     1300      33  360/ 13/ 20   N/A
CHES BAY BRIDGE  1300   18 38  320/ 23/ 27 1034.6R
CAPE HENRY VA    1300   18     330/ 22/ 30   N/A
CHESAPEAKE LGHT  1300   19     360/ 24/ 29 1034.5R
WILLOUBY STN VA  1300   17     330/ 19/ 21 1035.9R
1ST LANDING BUOY 1400      38                N/A     3/ 3
CAPE CHARLES BUO 1326      40                N/A     4/ 4   2/ 8
OFFSHORE WE BUOY 1321      45                N/A     7/ 6   2/11
64NM E OF VA BCH 1350   24 50  350/ 19/ 25 1033.0R   8/ 8
DUCK PIER NC     1300   19     330/ 19/ 22 1033.2R
44100 DUCK FRF   1324      44                N/A     7/ 7
44056 DUCK FRF   1311      41                N/A     5/ 7
OREGON INLET NC  1300   23 39  350/ 14/ 19 1033.2R
HATTERAS NC      1300   23 38  350/ 22/ 25 1032.8R
DIAMOND SHLS NC  1350   29 72  360/ 23/ 31 1033.2R   6/ 7
CAPE LOOKOUT NC  1400   24      10/ 17/ 22 1033.8R
$$



USA.gov is the U.S. government's official web portal to all federal, state and local government web resources and services.